Regional Weather Roundup
Issued by NWS

Home | Current Version | Previous Version | Graphics & Text | Print | Product List | Glossary On
Versions: 1 2 3 4 5 6 7 8 9 10 11 12 13 14 15 16 17 18 19 20 21 22 23 24 25 26 27 28 29 30 31 32 33 34 35 36 37 38 39 40 41 42 43 44 45 46 47 48 49 50
000
ASUS43 KFSD 261002
RWRSD

WEATHER ROUNDUP FOR SOUTH DAKOTA
NATIONAL WEATHER SERVICE SIOUX FALLS SD
400 AM CST MON JAN 26 2015

NOTE: "FAIR" INDICATES FEW OR NO CLOUDS BELOW 12,000 FEET WITH NO
SIGNIFICANT WEATHER AND/OR OBSTRUCTIONS TO VISIBILITY.


SDZ001>005-009-010-012>017-261100-
NORTHWEST AND NORTH CENTRAL SOUTH DAKOTA

CITY           SKY/WX    TMP DP  RH WIND       PRES   REMARKS
BUFFALO          N/A     36  30  79 W13       29.88S
FAITH            N/A     42  32  67 W20       29.90R
MOBRIDGE       CLEAR     38  33  82 NW10      29.81R
$$

SDZ012>016-024>037-041>051-057-063-072>074-261100-
SOUTHWEST AND SOUTH CENTRAL SOUTH DAKOTA

CITY           SKY/WX    TMP DP  RH WIND       PRES   REMARKS
RAPID CTY ARPT CLEAR     52  29  41 NW17      29.97R
PIERRE         CLEAR     37  31  78 W13       29.85S
CUSTER         CLEAR     40  26  57 W6        30.05S
ELLSWORTH AFB  CLEAR     52  30  42 NW16      29.96S
PHILIP         CLEAR     39  31  72 W9        29.92R
PINE RIDGE     PTCLDY    38  29  70 W3        30.03F
WINNER         FAIR      44  33  65 W13       29.89S
$$

SDZ004>011-016>023-039-040-261100-
NORTHEAST SOUTH DAKOTA

CITY           SKY/WX    TMP DP  RH WIND       PRES   REMARKS
ABERDEEN       PTCLDY    33  29  85 W3        29.75F
WATERTOWN      PTCLDY    35  29  78 W14       29.75S WCI  26
SISSETON         N/A     38  32  79 NW13G23   29.70F
$$

SDZ017-020-022-023-036>040-048>070-261100-
SOUTHEAST SOUTH DAKOTA

CITY           SKY/WX    TMP DP  RH WIND       PRES   REMARKS
SIOUX FALLS    PTCLDY    32  30  92 SW12      29.79F WCI  23
HURON          PTCLDY    33  29  85 SW9       29.77F WCI  25
MITCHELL       CLEAR     37  31  78 W13       29.82F
YANKTON        CLEAR     34  28  80 SW8       29.85F WCI  27
$$

ABBREVIATIONS USED IN REMARKS
   TC - TEMPERATURE IN CELSIUS
  WCI - WIND CHILL INDEX
   HX - HEAT INDEX
  VSB - VISIBILITY



USA.gov is the U.S. government's official web portal to all federal, state and local government web resources and services.